Volver al catálogo

YAOGAN-30 AB

ActivoMilitarVLEO
NORAD 48861·PAYLOAD·🇨🇳 China

Lanzado Jun 18, 2021 desde Xichang Satellite Launch Center

Loading…

Próximos Pases (próximas 24 horas)

TLE

ActualizadoSource: Space-Track

Época: Sep 14, 2026, 14:23 UTC

1 48861U 21055B   26257.59960059  .00001824  00000-0  13475-3 0  9993
2 48861  34.9965 326.7627 0003452 153.4826 206.6059 15.03058543286638

Sigue YAOGAN-30 AB en tiempo real con AllMySat

Download on the App Store